THOR 5

Last updated on Thu Jul 03 2025 00:02:44 GMT+0000 (Coordinated Universal Time)

1 32487U 08006A 25183.35392052 -.00000002 00000+0 00000+0 0 9997 2 32487 0.0221 257.7148 0002385 203.0647 306.5021 1.00272161 63809
UTC large
Height (km)
Speed (km/s)
/
Latitude / Longitude
Inclination (degrees)
Orbital Period (minutes)
Azimuth
Elevation
Range (km)
Doppler Factor

Next 0 passes for location: London (51.5072 / 0.1276)

Sorry there are no passes over London.